User: anonymous   Login
Location: Unspecified
(0.0000°N, 0.0000°E)
Time: 17:32:34
(UTC+00:00)
Language:

PAYLOAD A - Orbit

View from above orbital plane
View from above orbital plane
View from above satellite
View from above satellite

Ground track
Ground track

The orbit data is extracted from the following two-line orbital elements,

1 27055U 01058A   18170.75934537 -.00000020 +00000-0 -17702-3 0  9997
2 27055 082.5453 296.0858 0009616 358.0815 002.0241 12.59823703757703
Epoch (UTC): 19 June 2018 18:13:27
Eccentricity: 0.0009616
inclination: 82.5453°
perigee height: 1416 km
apogee height: 1431 km
right ascension of ascending node: 296.0858°
argument of perigee: 358.0815°
revolutions per day: 12.59823703
mean anomaly at epoch: 2.0241°
orbit number at epoch: 75770

The dashed part of the orbit path shows where the satellite is in the earth's shadow,  

DLR